Location: Truman State University Observatory
(40.1787°N, 92.6006°W)
Time: 16:42:27
(UTC-05:00)

Envisat - Visible Passes

Search period start: 19 June 2018 00:00
Search period end: 29 June 2018 00:00
Orbit: 764 x 766 km, 98.2° (Epoch: 19 June)

Date Brightness Start Highest point End Pass type
(mag) Time Alt. Az. Time Alt. Az. Time Alt. Az.
20 Jun 6.0 22:04:42 10° W 22:05:30 10° W 22:06:19 10° W visible
21 Jun 5.2 21:24:17 10° SSW 21:28:23 24° W 21:32:31 10° NW visible
23 Jun 5.7 21:51:42 10° WSW 21:54:12 14° W 21:56:45 10° WNW visible
24 Jun 4.8 21:12:41 10° SSW 21:17:09 31° W 21:21:39 10° NW visible
26 Jun 5.5 21:39:35 10° SW 21:42:56 18° W 21:46:18 10° NW visible
